YAOGAN 10

Satellite information

Favourite Embed

Satellite Type and Status

PAYLOADIN ORBIT

Key statistics

Satellite YAOGAN 10 at a glance.

Uptime

5510

Days in orbit

Revolutions

≈ 14.8

Per day

Orbit

SSO

Sun Synchronous Orbit

Inclination

97.9

Latest

Satellite identification and parameters

Extended collection of information and parameters for YAOGAN 10.

Object identification

Identified? True

Debris? False

Object name: YAOGAN 10

International designator: 2010-038A

Object number (NORAD): 36834

Object ID (CCSDS): 36834

Country: PEOPLES REPUBLIC OF CHINA (PRC)

Current information (Y/N): Y

RCS size: LARGE

Orbital parameters

Period: 97.013 minutes

Inclination: 97.9238 deg

SMA: 6993.788 km

Apoapsis: 616.635 km

Periapsis: 614.671 km

RAAN: 272.1628 deg

Eccentricy: 0.00014042

Argument of periapsis: 87.516 deg

Mean anomaly: 27.6581 deg

Mean motion: 14.84342242 rev/day

Mean motion (dot): 0.0000084 rev/day2

B* drag term: 0.0001064751 1/REarth

Two-line elements (TLE)

Creation date: Sept. 8, 2025, 6:18 p.m.

Reference frame: TEME

Reference center: EARTH

Epoch: Sept. 8, 2025, 4:11 p.m. UTC

TLE line 0: 0 YAOGAN 10

TLE line 1: 1 36834U 10038A 25251.67458530 .00000840 00000-0 10648-3 0 9993

TLE line 2: 2 36834 97.9238 272.1628 0001404 87.5160 27.6581 14.84342242815432

Live tracking on map

Real-time ground track for satellite YAOGAN 10.

In-orbit conjunctions

There are no conjunctions computed for YAOGAN 10, at the moment. Check back to stay up to date, as we update our databases every day.

Go to all conjunctions

Associated space launch

YAOGAN 10 was lifted into orbit during the mission ‘Long March 4C | Yaogan-10’, on board a Long March 4C space rocket.

The launch took place on Aug. 9, 2010, 10:49 p.m. from Launch Complex 9.

For more information about the launch, click the button.

Launch to space Long March 4C | Yaogan-10
Long March 4C | Yaogan-10

Agency: N/A

Status: Launch Successful

Launch date: Aug. 9, 2010, 10:49 p.m. UTC

Rocket: Long March 4C

Launch pad: Launch Complex 9

Location: Taiyuan Satellite Launch Center, People's Republic of China

...

Latest news about this satellite

There are no fresh news available about this satellite. Check back as we update our databases every day.


Newsletter sign-up

Weekly statistics, charts and insights to help you stay on top of the space industry.